Chamberlain, SD

5:50 AM CDT on June 25, 2017 (GMT -0500)
Chamberlain

Weather History for K9V9 - March, 2013

Change the Weather History Date:

Sunday, March 3, 2013

  Actual Average Record
Temperature  
Mean Temperature 34 °F -  
Max Temperature 39 °F 31 °F 55 °F (2005)
Min Temperature 30 °F 14 °F -11 °F (2014)
Degree Days  
Heating Degree Days 30    
Moisture  
Dew Point 29 °F    
Average Humidity 84    
Maximum Humidity 89    
Minimum Humidity 77    
Precipitation  
Precipitation 0.00 in - - ()
Sea Level Pressure  
Sea Level Pressure 29.77 in    
Wind  
Wind Speed 12 mph (ESE)    
Max Wind Speed 22 mph    
Max Gust Speed 29 mph    
Averages and records for this station are not official NWS values.
T = Trace of Precipitation, MM = Missing Value Source: NWS Daily Summary

Daily Weather History Graph

Daily Weather History Graph

Search for Another Location

Airport or City:

Trip Planner

Search our weather history database for the weather conditions in past years. The results will help you decide how hot, cold, wet, or windy it might be!

Date:

Astronomy

Mar. 03, 2013 Rise Set
Actual Time 7:10 AM CST 6:28 PM CST
Civil Twilight 6:41 AM CST 6:57 PM CST
Nautical Twilight 6:08 AM CST 7:30 PM CST
Astronomical Twilight 5:34 AM CST 8:04 PM CST
Moon 12:21 AM CST (3/3) 10:13 AM CST (3/3)
Length of Visible Light 12h 16m
Length of Day
11h 18m
Waning Gibbous, 63% of the Moon is Illuminated
Mar 3
Waning Gibbous
Mar 4
Last Quarter
Mar 11
New
Mar 19
First Quarter
Mar 27
Full

Hourly Weather History & Observations

Time (CST) Temp. Windchill Dew Point Humidity Pressure Visibility Wind Dir Wind Speed Gust Speed Precip Events Conditions
12:52 AM 30.9 °F 26.2 °F 28.0 °F 89% 29.96 in - ESE 4.6 mph - N/A   Unknown
1:52 AM 30.9 °F 26.2 °F 27.0 °F 85% 29.95 in - ESE 4.6 mph - N/A   Unknown
2:52 AM 30.0 °F 23.2 °F 27.0 °F 88% 29.93 in - ESE 6.9 mph - N/A   Unknown
3:52 AM 30.0 °F 23.2 °F 27.0 °F 88% 29.91 in - East 6.9 mph - N/A   Unknown
4:52 AM 30.0 °F 22.4 °F 27.0 °F 88% 29.89 in - ESE 8.1 mph - N/A   Unknown
5:52 AM 30.0 °F 22.4 °F 27.0 °F 88% 29.88 in - ESE 8.1 mph - N/A   Unknown
6:52 AM 30.0 °F 20.5 °F 27.0 °F 88% 29.86 in - SE 11.5 mph - N/A   Unknown
7:52 AM 30.0 °F 20.0 °F 27.0 °F 88% 29.85 in - ESE 12.7 mph - N/A   Unknown
8:52 AM 30.9 °F 19.4 °F 28.0 °F 89% 29.83 in - ESE 17.3 mph - N/A   Unknown
9:52 AM 33.1 °F 23.0 °F 28.9 °F 85% 29.82 in - SE 15.0 mph - N/A   Unknown
10:52 AM 35.1 °F 25.9 °F 30.9 °F 85% 29.79 in - ESE 13.8 mph - N/A   Unknown
11:52 AM 37.9 °F 29.2 °F 32.0 °F 79% 29.77 in - SE 15.0 mph - N/A   Unknown
12:52 PM 39.0 °F 29.9 °F 33.1 °F 79% 29.73 in - ESE 17.3 mph - N/A   Unknown
1:52 PM 39.9 °F 30.8 °F 33.1 °F 77% 29.70 in - ESE 18.4 mph - N/A   Unknown
2:52 PM 39.9 °F 30.2 °F 33.1 °F 77% 29.68 in - ESE 20.7 mph 26.5 mph N/A   Unknown
3:52 PM 37.9 °F 27.3 °F 32.0 °F 79% 29.67 in - East 21.9 mph - N/A   Unknown
4:52 PM 37.0 °F 26.2 °F 30.9 °F 79% 29.65 in - ESE 21.9 mph 28.8 mph N/A   Unknown
5:52 PM 35.1 °F 23.8 °F 30.0 °F 82% 29.65 in - ESE 20.7 mph 27.6 mph N/A   Unknown
6:52 PM 33.1 °F 22.2 °F 28.9 °F 85% 29.67 in - ESE 17.3 mph - N/A   Unknown
7:52 PM 33.1 °F 22.2 °F 28.9 °F 85% 29.66 in - ESE 17.3 mph - N/A   Unknown
8:52 PM 33.1 °F 21.2 °F 28.0 °F 82% 29.65 in - ESE 20.7 mph 27.6 mph N/A   Unknown
9:52 PM 33.1 °F 21.5 °F 28.0 °F 82% 29.64 in - ESE 19.6 mph - N/A   Unknown
10:52 PM 32.0 °F 20.1 °F 28.0 °F 85% 29.62 in - SE 19.6 mph 27.6 mph N/A   Unknown
11:52 PM 32.0 °F 21.2 °F 28.0 °F 85% 29.62 in - SE 16.1 mph - N/A   Unknown